This is the latest recevied weather packets stored in our database for station/object SQ3RAX-13. If no packets are shown the sender has not sent any weather packets the latest 10 day(s).
| Time | Temp. | Humidity | Pressure | Rain* | Wind** | Luminosity | Snow |
|---|---|---|---|---|---|---|---|
| 1777683299 | 7.22° C | 80% | 1025 hPa | 0 mm | - | - | - |
| 1777682699 | 7.22° C | 79% | 1025 hPa | 0 mm | - | - | - |
| 1777682099 | 7.22° C | 79% | 1025 hPa | 0 mm | - | - | - |
| 1777681499 | 7.78° C | 78% | 1025 hPa | 0 mm | - | - | - |
| 1777680899 | 8.33° C | 79% | 1025 hPa | 0 mm | - | - | - |
| 1777680299 | 8.33° C | 79% | 1025 hPa | 0 mm | - | - | - |
| 1777679700 | 8.33° C | 79% | 1025 hPa | 0 mm | - | - | - |
| 1777679100 | 8.33° C | 79% | 1025 hPa | 0 mm | - | - | - |
| 1777678500 | 8.33° C | 75% | 1025 hPa | 0 mm | - | - | - |
| 1777677900 | 8.33° C | 75% | 1025 hPa | 0 mm | - | - | - |
| 1777677300 | 8.89° C | 74% | 1025 hPa | 0 mm | - | - | - |
| 1777676700 | 8.89° C | 75% | 1026 hPa | 0 mm | - | - | - |
| 1777676100 | 9.44° C | 73% | 1026 hPa | 0 mm | - | - | - |
| 1777675500 | 9.44° C | 72% | 1026 hPa | 0 mm | - | - | - |
| 1777674900 | 9.44° C | 72% | 1026 hPa | 0 mm | - | - | - |
| 1777674301 | 10° C | 67% | 1025 hPa | 0 mm | - | - | - |
| 1777673700 | 10° C | 66% | 1025 hPa | 0 mm | - | - | - |
| 1777673100 | 10.56° C | 70% | 1026 hPa | 0 mm | - | - | - |
| 1777672500 | 10.56° C | 70% | 1026 hPa | 0 mm | - | - | - |
| 1777671900 | 10.56° C | 70% | 1026 hPa | 0 mm | - | - | - |
| 1777671300 | 10.56° C | 69% | 1026 hPa | 0 mm | - | - | - |
| 1777670700 | 11.11° C | 64% | 1025 hPa | 0 mm | - | - | - |
| 1777670100 | 11.67° C | 63% | 1025 hPa | 0 mm | - | - | - |
| 1777669500 | 12.22° C | 65% | 1026 hPa | 0 mm | - | - | - |
| 1777668900 | 12.78° C | 64% | 1026 hPa | 0 mm | - | - | - |
* Rain latest hour (hover to see other rain measurements)
** Current wind speed in m/s (hover to see current wind gust speed)